timestamp,wind_dir_avg,wind_spd_max_dir,wind_spd_avg,wind_spd_gust,battery_voltage,lat,long
2018-07-03 00:00:00+00:00,94.0,90.0,2.47,3.47,,47.59359,-54.27349
2018-07-03 00:10:00+00:00,92.0,78.0,1.88,2.88,,47.59359,-54.27349
2018-07-03 00:20:00+00:00,90.0,94.0,1.78,2.37,,47.59359,-54.27349
2018-07-03 00:30:00+00:00,67.0,66.0,2.05,2.28,,47.59359,-54.27349
2018-07-03 00:40:00+00:00,61.0,62.0,2.8,3.03,,47.59359,-54.27349
2018-07-03 00:50:00+00:00,61.0,61.0,4.13,4.37,,47.59359,-54.27349
2018-07-03 01:00:00+00:00,68.0,73.0,2.64,2.97,,47.59359,-54.27349
2018-07-03 01:10:00+00:00,83.0,83.0,3.58,4.05,,47.59359,-54.27349
2018-07-03 01:20:00+00:00,80.0,80.0,2.94,3.37,,47.59359,-54.27349
2018-07-03 01:30:00+00:00,84.0,83.0,3.76,4.25,,47.59359,-54.27349
2018-07-03 01:40:00+00:00,81.0,83.0,4.24,4.64,,47.59359,-54.27349
2018-07-03 01:50:00+00:00,74.0,75.0,4.57,4.88,,47.59359,-54.27349
2018-07-03 02:00:00+00:00,88.0,88.0,3.73,4.34,,47.59359,-54.27349
2018-07-03 02:10:00+00:00,98.0,98.0,2.78,3.15,,47.59359,-54.27349
2018-07-03 02:20:00+00:00,114.0,114.0,1.99,3.15,,47.59359,-54.27349
2018-07-03 02:30:00+00:00,118.0,135.0,1.57,2.35,,47.59359,-54.27349
2018-07-03 02:40:00+00:00,123.0,120.0,1.58,2.45,,47.59359,-54.27349
2018-07-03 02:50:00+00:00,126.0,110.0,1.05,1.48,,47.59359,-54.27349
2018-07-03 03:00:00+00:00,146.0,142.0,1.46,1.87,,47.59359,-54.27349
2018-07-03 03:10:00+00:00,214.0,216.0,2.6,3.05,,47.59359,-54.27349
2018-07-03 03:20:00+00:00,225.0,230.0,4.05,4.6,,47.59359,-54.27349
2018-07-03 03:30:00+00:00,231.0,228.0,3.81,4.49,,47.59359,-54.27349
2018-07-03 03:40:00+00:00,214.0,218.0,3.83,4.58,,47.59359,-54.27349
2018-07-03 03:50:00+00:00,215.0,214.0,3.84,4.36,,47.59359,-54.27349
2018-07-03 04:00:00+00:00,225.0,225.0,3.69,4.17,,47.59359,-54.27349
2018-07-03 04:10:00+00:00,232.0,231.0,4.38,5.22,,47.59359,-54.27349
2018-07-03 04:20:00+00:00,237.0,240.0,4.13,4.75,,47.59359,-54.27349
2018-07-03 04:30:00+00:00,240.0,244.0,3.25,3.75,,47.59359,-54.27349
2018-07-03 04:40:00+00:00,243.0,245.0,3.55,3.9,,47.59359,-54.27349
2018-07-03 04:50:00+00:00,240.0,237.0,3.33,3.51,,47.59359,-54.27349
2018-07-03 05:00:00+00:00,231.0,232.0,3.32,3.51,,47.59359,-54.27349
2018-07-03 05:10:00+00:00,230.0,231.0,3.24,3.37,,47.59359,-54.27349
2018-07-03 05:20:00+00:00,236.0,240.0,2.57,2.88,,47.59359,-54.27349
2018-07-03 05:30:00+00:00,234.0,231.0,2.21,2.55,,47.59359,-54.27349
2018-07-03 05:40:00+00:00,217.0,220.0,3.12,3.71,,47.59359,-54.27349
2018-07-03 05:50:00+00:00,228.0,229.0,3.85,4.1,,47.59359,-54.27349
2018-07-03 06:00:00+00:00,232.0,234.0,3.57,3.82,,47.59359,-54.27349
2018-07-03 06:10:00+00:00,220.0,218.0,4.48,4.91,,47.59359,-54.27349
2018-07-03 06:20:00+00:00,220.0,220.0,4.14,4.47,,47.59359,-54.27349
2018-07-03 06:30:00+00:00,226.0,229.0,3.81,4.14,,47.59359,-54.27349
2018-07-03 06:40:00+00:00,218.0,218.0,4.19,4.5,,47.59359,-54.27349
2018-07-03 06:50:00+00:00,228.0,235.0,4.31,4.94,,47.59359,-54.27349
2018-07-03 07:00:00+00:00,213.0,211.0,5.79,6.23,,47.59359,-54.27349
2018-07-03 07:10:00+00:00,215.0,216.0,6.25,6.8,,47.59359,-54.27349
2018-07-03 07:20:00+00:00,226.0,227.0,4.81,5.08,,47.59359,-54.27349
2018-07-03 07:30:00+00:00,220.0,221.0,5.05,5.5,,47.59359,-54.27349
2018-07-03 07:40:00+00:00,217.0,216.0,5.19,5.87,,47.59359,-54.27349
2018-07-03 07:50:00+00:00,215.0,216.0,4.24,4.83,,47.59359,-54.27349
2018-07-03 08:00:00+00:00,210.0,205.0,6.04,7.97,,47.59359,-54.27349
2018-07-03 08:40:00+00:00,201.0,201.0,5.15,5.62,,47.59359,-54.27349
2018-07-03 08:50:00+00:00,211.0,213.0,4.65,5.04,,47.59359,-54.27349
2018-07-03 09:00:00+00:00,220.0,221.0,4.37,5.08,,47.59359,-54.27349
2018-07-03 09:10:00+00:00,230.0,232.0,5.65,6.42,,47.59359,-54.27349
2018-07-03 09:20:00+00:00,234.0,233.0,6.0,7.2,,47.59359,-54.27349
2018-07-03 09:30:00+00:00,239.0,241.0,6.11,6.92,,47.59359,-54.27349
2018-07-03 09:40:00+00:00,243.0,248.0,6.01,7.26,,47.59359,-54.27349
2018-07-03 11:20:00+00:00,221.0,225.0,6.72,7.41,,47.59359,-54.27349
2018-07-03 11:30:00+00:00,225.0,226.0,7.14,7.83,,47.59359,-54.27349
2018-07-03 11:40:00+00:00,224.0,230.0,7.26,8.09,,47.59359,-54.27349
2018-07-03 11:50:00+00:00,226.0,228.0,7.29,7.95,,47.59359,-54.27349
2018-07-03 12:00:00+00:00,228.0,229.0,7.91,8.75,,47.59359,-54.27349
2018-07-03 12:10:00+00:00,227.0,230.0,7.77,8.64,,47.59359,-54.27349
2018-07-03 12:20:00+00:00,233.0,233.0,7.61,8.91,,47.59359,-54.27349
2018-07-03 12:30:00+00:00,232.0,233.0,8.16,9.2,,47.59359,-54.27349
2018-07-03 12:40:00+00:00,231.0,233.0,7.41,8.0,,47.59359,-54.27349
2018-07-03 12:50:00+00:00,229.0,229.0,7.87,8.56,,47.59359,-54.27349
2018-07-03 13:00:00+00:00,225.0,231.0,6.64,7.7,,47.59359,-54.27349
2018-07-03 13:10:00+00:00,229.0,231.0,7.89,9.07,,47.59359,-54.27349
2018-07-03 13:20:00+00:00,222.0,223.0,8.14,9.04,,47.59359,-54.27349
2018-07-03 13:30:00+00:00,220.0,218.0,8.08,8.72,,47.59359,-54.27349
2018-07-03 13:40:00+00:00,217.0,209.0,8.21,9.86,,47.59359,-54.27349
2018-07-03 13:50:00+00:00,218.0,218.0,7.9,8.62,,47.59359,-54.27349
2018-07-03 14:00:00+00:00,220.0,221.0,8.26,9.12,,47.59359,-54.27349
2018-07-03 14:10:00+00:00,218.0,219.0,7.27,8.35,,47.59359,-54.27349
2018-07-03 14:20:00+00:00,212.0,212.0,7.09,7.72,,47.59359,-54.27349
2018-07-03 14:30:00+00:00,219.0,221.0,7.45,8.24,,47.59359,-54.27349
2018-07-03 14:40:00+00:00,219.0,219.0,7.66,8.48,,47.59359,-54.27349
2018-07-03 14:50:00+00:00,219.0,220.0,7.34,8.05,,47.59359,-54.27349
2018-07-03 15:00:00+00:00,221.0,222.0,7.74,8.46,,47.59359,-54.27349
2018-07-03 15:10:00+00:00,219.0,223.0,7.71,8.71,,47.59359,-54.27349
2018-07-03 15:20:00+00:00,218.0,216.0,8.61,9.44,,47.59359,-54.27349
2018-07-03 15:30:00+00:00,220.0,222.0,8.8,9.8,,47.59359,-54.27349
2018-07-03 15:40:00+00:00,219.0,219.0,8.06,9.14,,47.59359,-54.27349
2018-07-03 15:50:00+00:00,213.0,213.0,8.01,8.89,,47.59359,-54.27349
2018-07-03 16:00:00+00:00,208.0,206.0,7.92,8.8,,47.59359,-54.27349
2018-07-03 16:10:00+00:00,215.0,213.0,8.2,9.06,,47.59359,-54.27349
2018-07-03 16:20:00+00:00,217.0,218.0,9.02,10.03,,47.59359,-54.27349
2018-07-03 16:30:00+00:00,218.0,217.0,9.28,10.21,,47.59359,-54.27349
2018-07-03 16:40:00+00:00,221.0,226.0,9.56,10.38,,47.59359,-54.27349
2018-07-03 16:50:00+00:00,223.0,223.0,9.18,10.16,,47.59359,-54.27349
2018-07-03 17:00:00+00:00,227.0,230.0,10.08,11.16,,47.59359,-54.27349
2018-07-03 17:10:00+00:00,223.0,225.0,9.85,10.8,,47.59359,-54.27349
2018-07-03 17:20:00+00:00,218.0,219.0,9.8,10.52,,47.59359,-54.27349
2018-07-03 17:30:00+00:00,218.0,218.0,9.02,9.87,,47.59359,-54.27349
2018-07-03 17:40:00+00:00,227.0,227.0,11.13,12.56,,47.59359,-54.27349
2018-07-03 17:50:00+00:00,219.0,224.0,9.66,11.25,,47.59359,-54.27349
2018-07-03 18:00:00+00:00,218.0,224.0,8.42,10.35,,47.59359,-54.27349
2018-07-03 18:10:00+00:00,213.0,212.0,7.91,9.75,,47.59359,-54.27349
2018-07-03 18:20:00+00:00,225.0,227.0,10.93,12.83,,47.59359,-54.27349
2018-07-03 18:30:00+00:00,225.0,225.0,11.31,12.17,,47.59359,-54.27349
2018-07-03 18:40:00+00:00,221.0,223.0,9.26,10.43,,47.59359,-54.27349
2018-07-03 18:50:00+00:00,215.0,212.0,8.1,8.96,,47.59359,-54.27349
2018-07-03 19:00:00+00:00,217.0,221.0,8.75,9.8,,47.59359,-54.27349
2018-07-03 19:10:00+00:00,217.0,218.0,10.59,11.86,,47.59359,-54.27349
2018-07-03 19:20:00+00:00,221.0,221.0,10.51,11.43,,47.59359,-54.27349
2018-07-03 19:30:00+00:00,217.0,218.0,11.4,12.18,,47.59359,-54.27349
2018-07-03 19:40:00+00:00,216.0,216.0,11.24,11.83,,47.59359,-54.27349
2018-07-03 19:50:00+00:00,213.0,212.0,10.97,11.85,,47.59359,-54.27349
2018-07-03 20:00:00+00:00,214.0,215.0,10.38,11.42,,47.59359,-54.27349
2018-07-03 20:10:00+00:00,214.0,218.0,11.35,12.28,,47.59359,-54.27349
2018-07-03 20:20:00+00:00,210.0,210.0,11.12,12.03,,47.59359,-54.27349
2018-07-03 20:30:00+00:00,210.0,211.0,10.88,12.01,,47.59359,-54.27349
2018-07-03 20:40:00+00:00,215.0,215.0,10.83,11.98,,47.59359,-54.27349
2018-07-03 20:50:00+00:00,215.0,215.0,10.03,11.03,,47.59359,-54.27349
2018-07-03 21:00:00+00:00,214.0,214.0,9.53,10.69,,47.59359,-54.27349
2018-07-03 21:10:00+00:00,213.0,214.0,9.65,10.89,,47.59359,-54.27349
2018-07-03 21:20:00+00:00,209.0,209.0,10.03,11.03,,47.59359,-54.27349
2018-07-03 21:30:00+00:00,216.0,221.0,9.09,10.23,,47.59359,-54.27349
2018-07-03 21:40:00+00:00,219.0,216.0,9.28,10.07,,47.59359,-54.27349
2018-07-03 21:50:00+00:00,221.0,223.0,9.13,10.46,,47.59359,-54.27349
2018-07-03 22:00:00+00:00,211.0,210.0,7.99,8.89,,47.59359,-54.27349
2018-07-03 22:10:00+00:00,209.0,211.0,9.23,10.21,,47.59359,-54.27349
2018-07-03 22:20:00+00:00,212.0,214.0,8.91,9.6,,47.59359,-54.27349
2018-07-03 22:30:00+00:00,216.0,219.0,7.85,9.03,,47.59359,-54.27349
2018-07-03 22:40:00+00:00,217.0,219.0,8.47,9.22,,47.59359,-54.27349
2018-07-03 22:50:00+00:00,220.0,224.0,8.93,9.6,,47.59359,-54.27349
2018-07-03 23:00:00+00:00,223.0,223.0,8.27,9.25,,47.59359,-54.27349
2018-07-03 23:10:00+00:00,222.0,224.0,8.96,9.83,,47.59359,-54.27349
2018-07-03 23:20:00+00:00,223.0,226.0,9.01,10.5,,47.59359,-54.27349
2018-07-03 23:30:00+00:00,226.0,229.0,9.26,10.13,,47.59359,-54.27349
2018-07-03 23:40:00+00:00,222.0,223.0,9.31,10.8,,47.59359,-54.27349
2018-07-03 23:50:00+00:00,227.0,229.0,9.32,10.17,,47.59359,-54.27349
